Location: Nitra
(0.0000°N, 18.0833°E)
Time: 02:43:06
(UTC+02:00)

STRAND 1 - Pass Details

Date: 09 June 2023
Orbit: 767 x 778 km, 98.4° (Epoch: 01 October)

Event Time Altitude Azimuth Distance (km) Brightness Sun altitude
Rises 19:07:00 0° 12° (NNE) 3,242 ? -4.6°
Reaches altitude 10° 19:09:18 10° 12° (NNE) 2,316 ? -5.1°
Maximum altitude 19:14:26 88° 282° (WNW) 779 ? -6.3°
Drops below altitude 10° 19:19:33 10° 193° (SSW) 2,318 ? -7.5°
Sets 19:21:52 0° 192° (SSW) 3,246 ? -8.0°
